Retour au catalogue

QIANFAN-70

ActifCommunicationsPO
NORAD 62800·PAYLOAD·🇨🇳 China

Lancé Jan 23, 2025 depuis Taiyuan Satellite Launch Center

Loading…

Prochains Passages (prochaines 24 heures)

TLE

FraisSource: Space-Track

Époque: Sep 14, 2026, 21:28 UTC

1 62800U 25016R   26257.89483215  .00000055  00000-0  65982-4 0  9996
2 62800  88.9665  74.4271 0013566 256.0671 103.8972 13.51023541 84527

Suivez QIANFAN-70 en temps réel avec AllMySat

Download on the App Store